OBJECT Q, 67262

Orbit data source: Space-Track

You're viewing an Uncataloged Satellite

Recently launched and/or uncataloged satellites may have evolving metadata. Metadata may include but not limited to: Owner, Maufacturer, Bus, Motor, and Mission.

OBJECT Q, 67262 is a satellite in SSO that was launched on Sun, 28 Dec 2025 UTC via a SOYUZ-2-1B launch vehicle from the Vostochny Cosmodrome (VOSTO). Unknown objects in Earth's orbit typically refer to objects detected orbiting the Earth but have not yet been identified or cataloged. These objects could be anything from previously untracked satellites, spent rocket stages, debris from satellite collisions, or even natural meteoroids temporarily captured by Earth's gravity.

Loading next visibility...
Identifier
67262, 2025-313Q
Orbit
SSO
Country
Flag of TBDTBD
Related business
None
Manufacturer
Unknown
Mission
Operational Commercial Technology
Bus & Motor
Unknown
Mass
Unknown
Launch date (UTC)
2025-12-28 (6 months ago)
Launch vehicle
SOYUZ-2-1B
Launch site
Vostochny Cosmodrome (VOSTO)
Object type
Unknown
Shape & HBR
Box, 0.1 m
Radar Cross Section
0.035 m², Medium (>0.1 m² and < 1m²)

Expand to show TLE details & history
Last TLE update: 1 day ago

TLE from 1 day ago
0 OBJECT Q
1 67262U 25313Q   26170.77706583  .00009337  00000-0  38649-3 0  9991
2 67262  97.3931 245.5030 0013745   0.3662 359.7583 15.24069394 26352
Epoch: 2026-06-19T18:38Z
TLE epoch observation values (Epoch: 2026-06-19T18:38:58.487Z)
Latitude
-0.00004°
Longitude
57.75813°
Altitude
487.23 km
Speed
7.627 km/s
True Right ascension
16h 22m 00s
True Declination
0° 00' 00"
Sunlit
Object was in full shadow at epoch
Visualization orbit readout
Latitude
Unknown
Longitude
Unknown
Altitude
Unknown
Speed
Unknown
Apparent Right ascension
Unknown
Apparent Declination
Unknown
Sunlit
N/A
Visualization observer readout
Local Sidereal Time
07:18:47
Azimuth
Unknown
Elevation
Unknown
Doppler factor
Unknown
Orbital elements
Apogee altitude
499.982 km
Perigee altitude
481.1 km
Semi-major axis
6,868.678 km
Eccentricity
0.00137
Inclination
97.3931°
RAAN
245.503°
Arg. of periapsis
0.3662°
True anomaly
359.75763°
Mean anomaly
359.7583°
Eccentric anomaly
359.75797°
Mean motion
3.81271 °/min
Orbital period
94.42 mins
BSTAR
0.00038649
Loading maneuver chart data...
Computing Atmospheric mass density...
Loading historical data...
Loading historical data...
Loading historical data...
Loading historical data...
Loading historical data...
Loading historical data...
Loading historical data...

Documentation

Showing up to 5 results
|